Total_Precipitation_Accumulation
2.26 2.26 2.20 2.13 2.06 2.06 2.10 2.04 1.89 1.76 1.65 1.58 1.48 1.48 1.49 1.46 1.52 1.65 1.67 1.76 1.87 1.89 1.84 1.81 1.82 1.96 2.10 2.13 2.24 2.37 2.62 2.92 3.05 2.76 2.45 2.29 2.35 2.41 2.47 2.43 2.30 2.19 2.07
2.02 2.06 2.11 1.93 1.82 1.79 1.79 1.77 1.65 1.60 1.57 1.51 1.45 1.43 1.41 1.41 1.44 1.45 1.44 1.50 1.64 1.65 1.64 1.66 1.54 1.64 1.85 1.96 2.10 2.18 2.35 2.58 2.75 2.71 2.49 2.41 2.37 2.38 2.51 2.48 2.25 1.99 1.87
1.57 1.71 1.82 1.66 1.54 1.56 1.54 1.52 1.52 1.45 1.42 1.35 1.33 1.29 1.26 1.32 1.36 1.37 1.38 1.43 1.43 1.46 1.53 1.54 1.53 1.67 1.77 1.92 2.04 2.10 2.25 2.32 2.57 2.56 2.39 2.39 2.42 2.39 2.51 2.39 2.17 2.14 1.72
1.44 1.45 1.50 1.50 1.46 1.43 1.40 1.39 1.36 1.31 1.26 1.19 1.13 1.13 1.17 1.18 1.17 1.22 1.26 1.31 1.37 1.41 1.47 1.49 1.51 1.60 1.71 1.93 1.99 2.13 2.29 2.43 2.58 2.60 2.49 2.46 2.51 2.54 2.59 2.58 2.39 2.18 1.88
1.48 1.47 1.42 1.39 1.33 1.35 1.35 1.32 1.24 1.23 1.15 1.13 1.10 1.09 1.10 1.10 1.02 1.06 1.19 1.27 1.40 1.47 1.46 1.42 1.37 1.41 1.54 1.69 1.76 2.03 2.31 2.50 2.56 2.61 2.56 2.51 2.49 2.59 2.44 2.31 2.29 2.18 1.92
1.49 1.50 1.45 1.40 1.33 1.33 1.35 1.34 1.31 1.32 1.30 1.22 1.21 1.17 1.10 0.95 1.01 1.05 1.11 1.26 1.39 1.42 1.50 1.46 1.28 1.25 1.30 1.36 1.44 1.56 1.89 2.19 2.38 2.51 2.49 2.42 2.35 2.37 2.33 2.22 2.26 2.30 2.12
1.44 1.44 1.50 1.44 1.35 1.28 1.27 1.38 1.38 1.42 1.38 1.32 1.26 1.20 1.14 1.08 1.07 0.99 1.00 1.13 1.33 1.43 1.49 1.54 1.35 1.19 1.30 1.32 1.32 1.30 1.44 1.70 2.04 2.33 2.41 2.24 2.28 2.33 2.42 2.37 2.28 2.29 2.20
1.37 1.31 1.36 1.36 1.35 1.31 1.33 1.39 1.42 1.49 1.49 1.36 1.25 1.22 1.27 1.08 1.02 0.96 1.00 1.10 1.31 1.40 1.40 1.42 1.49 1.44 1.28 1.29 1.37 1.46 1.57 1.67 1.77 1.86 2.10 2.19 2.22 2.22 2.22 2.21 2.28 2.32 2.17
1.28 1.25 1.18 1.16 1.18 1.21 1.23 1.33 1.48 1.52 1.47 1.30 1.20 1.23 1.20 1.02 0.92 0.88 0.90 1.02 1.22 1.28 1.21 1.17 1.22 1.26 1.19 1.22 1.41 1.67 1.83 1.98 1.80 1.78 1.88 2.07 2.13 1.99 1.87 2.00 2.27 2.40 2.21
1.16 1.07 1.08 1.13 1.13 1.14 1.21 1.33 1.34 1.40 1.39 1.27 1.16 1.15 1.10 0.98 0.87 0.79 0.80 0.87 1.02 1.08 1.15 1.12 1.14 1.14 1.13 1.21 1.42 1.79 2.00 2.07 1.87 1.74 1.87 2.03 1.97 1.90 1.90 2.01 2.26 2.32 2.19
0.99 0.96 1.01 1.04 1.06 1.06 1.20 1.25 1.25 1.22 1.30 1.30 1.23 1.13 1.04 0.90 0.77 0.73 0.71 0.72 0.83 0.98 1.05 1.11 1.14 1.13 1.07 1.17 1.40 1.67 1.90 1.95 1.89 1.87 1.93 2.00 2.02 2.04 1.95 1.96 2.07 2.10 2.13
0.89 0.88 0.89 0.89 0.82 0.84 1.11 1.25 1.23 1.30 1.25 1.19 1.21 1.15 1.00 0.87 0.70 0.58 0.56 0.60 0.71 0.96 1.08 1.08 1.11 1.13 1.11 1.23 1.34 1.62 1.91 2.06 1.95 1.83 1.79 1.81 1.80 1.81 1.78 1.71 1.73 1.75 1.80
0.85 0.89 0.86 0.81 0.84 0.83 0.91 1.01 1.07 1.17 1.12 1.01 1.01 1.01 0.89 0.76 0.64 0.51 0.46 0.49 0.61 0.76 0.94 1.07 1.06 1.02 1.17 1.43 1.59 1.76 1.98 2.14 2.04 1.81 1.71 1.62 1.58 1.59 1.56 1.60 1.60 1.59 1.53
0.90 0.94 0.93 0.88 0.86 0.83 0.83 0.82 0.77 0.82 0.87 0.93 0.94 0.91 0.86 0.77 0.60 0.46 0.45 0.49 0.56 0.64 0.78 0.99 1.14 1.20 1.36 1.66 1.89 2.00 2.07 2.04 1.88 1.72 1.62 1.56 1.51 1.50 1.53 1.51 1.58 1.58 1.61
0.96 0.91 0.89 0.85 0.80 0.79 0.75 0.72 0.65 0.65 0.70 0.76 0.79 0.82 0.80 0.69 0.54 0.50 0.45 0.45 0.53 0.62 0.75 0.96 1.15 1.26 1.47 1.71 1.84 1.87 1.87 1.83 1.77 1.65 1.55 1.50 1.50 1.49 1.49 1.48 1.52 1.49 1.53
0.90 0.88 0.80 0.77 0.73 0.66 0.64 0.60 0.52 0.48 0.51 0.53 0.55 0.55 0.54 0.55 0.55 0.50 0.46 0.50 0.58 0.69 0.80 1.05 1.24 1.35 1.53 1.66 1.77 1.74 1.66 1.64 1.62 1.59 1.55 1.47 1.44 1.45 1.50 1.48 1.44 1.42 1.45
0.78 0.81 0.74 0.63 0.62 0.62 0.62 0.67 0.63 0.49 0.42 0.43 0.44 0.44 0.43 0.45 0.45 0.46 0.47 0.53 0.60 0.70 0.85 1.10 1.31 1.43 1.55 1.59 1.62 1.59 1.55 1.50 1.43 1.44 1.43 1.40 1.38 1.39 1.42 1.41 1.36 1.34 1.35
0.69 0.70 0.68 0.60 0.59 0.60 0.55 0.53 0.57 0.63 0.61 0.54 0.46 0.41 0.41 0.42 0.46 0.48 0.48 0.55 0.66 0.74 0.91 1.11 1.31 1.39 1.44 1.49 1.48 1.47 1.45 1.40 1.35 1.36 1.43 1.38 1.31 1.27 1.24 1.23 1.23 1.20 1.20
0.70 0.67 0.64 0.63 0.63 0.62 0.58 0.49 0.46 0.50 0.59 0.61 0.56 0.47 0.45 0.47 0.53 0.60 0.63 0.66 0.75 0.81 0.90 1.02 1.13 1.22 1.31 1.37 1.36 1.34 1.33 1.31 1.25 1.25 1.28 1.28 1.23 1.16 1.10 1.05 1.04 0.97 0.96
0.76 0.76 0.70 0.67 0.64 0.62 0.62 0.54 0.48 0.46 0.52 0.56 0.58 0.53 0.50 0.59 0.69 0.73 0.73 0.70 0.75 0.83 0.89 0.95 0.98 1.00 1.08 1.17 1.16 1.12 1.14 1.13 1.10 1.12 1.11 1.13 1.16 1.11 1.02 0.96 0.92 0.91 0.95
0.73 0.72 0.69 0.67 0.70 0.70 0.69 0.64 0.54 0.51 0.53 0.58 0.55 0.51 0.59 0.64 0.77 0.79 0.77 0.76 0.79 0.80 0.80 0.82 0.85 0.86 0.85 0.88 0.94 0.95 1.00 1.07 1.10 1.09 1.06 1.05 1.02 0.98 0.92 0.88 0.88 0.86 0.83
0.80 0.78 0.72 0.66 0.70 0.74 0.73 0.71 0.65 0.57 0.56 0.59 0.56 0.53 0.63 0.66 0.74 0.76 0.76 0.79 0.81 0.85 0.83 0.79 0.75 0.76 0.77 0.79 0.84 0.90 0.95 0.98 1.00 1.03 1.01 0.97 0.96 0.91 0.86 0.84 0.85 0.85 0.82
0.81 0.77 0.75 0.74 0.73 0.69 0.65 0.64 0.65 0.63 0.61 0.60 0.56 0.56 0.59 0.67 0.75 0.81 0.82 0.82 0.82 0.81 0.76 0.75 0.76 0.77 0.74 0.72 0.73 0.79 0.82 0.83 0.89 0.96 0.99 0.91 0.86 0.83 0.79 0.78 0.79 0.83 0.82
0.79 0.73 0.67 0.70 0.72 0.68 0.67 0.66 0.65 0.65 0.64 0.64 0.62 0.59 0.61 0.64 0.68 0.77 0.84 0.87 0.87 0.84 0.78 0.77 0.77 0.75 0.71 0.70 0.71 0.72 0.69 0.69 0.70 0.74 0.77 0.75 0.71 0.70 0.69 0.69 0.69 0.70 0.73
0.72 0.79 0.76 0.74 0.69 0.64 0.66 0.68 0.66 0.67 0.70 0.68 0.64 0.61 0.60 0.59 0.65 0.71 0.76 0.83 0.85 0.87 0.87 0.88 0.87 0.81 0.73 0.65 0.64 0.66 0.75 0.76 0.70 0.65 0.67 0.66 0.61 0.61 0.64 0.64 0.64 0.65 0.67
0.56 0.68 0.78 0.78 0.74 0.68 0.68 0.68 0.64 0.63 0.68 0.70 0.65 0.59 0.54 0.54 0.57 0.59 0.62 0.68 0.75 0.83 0.88 0.92 0.93 0.85 0.74 0.67 0.66 0.68 0.67 0.58 0.53 0.57 0.64 0.64 0.59 0.58 0.59 0.61 0.60 0.60 0.64